Home   Weather   Guelph   Past weeks

Flag for Canada Past Weather in Guelph, Ontario, Canada — Yesterday and Last 2 Weeks

Now
61 °F

Sunny.


Feels Like: 61 °F
Forecast: N/A
Wind: 10 mph from East

Location: Waterloo Well

Current Time: Apr 26, 2017 at 7:47:33 pm

Latest Report: Apr 26, 2017 at 7:00 pm


Visibility: 9 mi

Pressure: 29.68 "Hg

Humidity: 77%

Dew Point: 54 °F

Location of GuelphLocation

Past Weather in Guelph — Graph

°F

Guelph Temperature Yesterday

Maximum temperature yesterday: 52 °F (at 4:00 pm)
Minimum temperature yesterday: 41 °F (at 4:00 am)
Average temperature yesterday: 46 °F

High & Low Weather Summary for the Past Weeks

 TemperatureHumidityPressure
High72 °F (Apr 15, 4:00 pm)100% (Apr 20, 3:53 pm)30.54 "Hg (Apr 20, 3:53 pm)
Low28 °F (Apr 18, 6:00 am)25% (Apr 14, 4:00 pm)29.65 "Hg (Apr 26, 5:00 pm)
Average47 °F75%30.06 "Hg
* Reported Apr 11 6:00 pm — Apr 26 6:00 pm, Guelph, Weather by CustomWeather, © 2017

Note: Actual official high and low records may vary slightly from our data, if they occured in-between our weather recording intervals... More about our weather records

Advertising

Guelph Weather History for the Previous 24 Hours

Scroll right to see more
 ConditionsComfort  
Time TempWeatherWind HumidityBarometerVisibility
6:00 pm
Wed, Apr 26
64 °FSunny.16 mph68%29.66 "Hg9 mi
5:00 pm66 °FSunny.15 mph64%29.65 "Hg9 mi
4:15 pm64 °FScattered clouds.16 mph68%29.67 "Hg9 mi
3:00 pm64 °FPartly sunny.15 mph68%29.72 "Hg9 mi
2:56 pm64 °FPartly sunny.10 mph68%29.72 "Hg9 mi
2:27 pm64 °FScattered clouds.17 mph68%29.72 "Hg9 mi
2:00 pm63 °FPartly sunny.14 mph73%29.72 "Hg9 mi
1:00 pm63 °FOvercast.9 mph73%29.76 "Hg9 mi
12:00 pm59 °FOvercast.8 mph82%29.79 "Hg9 mi
11:14 am55 °FMostly cloudy.9 mph88%29.80 "Hg9 mi
11:00 am55 °FMore clouds than sun.9 mph88%29.80 "Hg8 mi
10:54 am55 °FMore clouds than sun.12 mph88%29.80 "Hg8 mi
10:22 am54 °FLow clouds.6 mph88%29.81 "Hg7 mi
10:00 am52 °FFog.3 mph94%29.82 "Hg6 mi
9:47 am52 °FFog.6 mph94%29.82 "Hg6 mi
9:08 am50 °FFog.7 mph100%29.81 "Hg3 mi
8:39 am50 °FFog.7 mph100%29.80 "Hg1 mi
8:00 am48 °FFog.7 mph100%29.80 "Hg0 mi
7:57 am48 °FFog.7 mph100%29.80 "Hg0 mi
7:21 am48 °FLight rain. Fog.7 mph100%29.80 "Hg0 mi
7:00 am48 °FFog.6 mph100%29.80 "Hg0 mi
6:16 am48 °FFog.7 mph94%29.80 "Hg1 mi
5:56 am46 °FFog.3 mph100%29.80 "Hg2 mi
5:39 am46 °FFog.7 mph93%29.79 "Hg2 mi
5:00 am48 °FFog.5 mph94%29.80 "Hg5 mi
4:19 am48 °FFog.3 mph94%29.80 "Hg5 mi
4:00 am48 °FOvercast.6 mph100%29.80 "Hg7 mi
3:00 am48 °FFog.5 mph94%29.82 "Hg6 mi
2:37 am48 °FFog.6 mph94%29.82 "Hg6 mi
2:00 am48 °FFog.3 mph94%29.83 "Hg5 mi
1:00 am46 °FFog.7 mph100%29.83 "Hg5 mi
12:50 am48 °FFog.6 mph94%29.83 "Hg5 mi
12:41 am48 °FFog.6 mph94%29.83 "Hg5 mi
12:00 am48 °FFog.8 mph94%29.83 "Hg3 mi
11:31 pm
Tue, Apr 25
48 °FFog.9 mph94%29.84 "Hg3 mi
11:00 pm48 °FFog.9 mph94%29.85 "Hg3 mi
10:18 pm48 °FFog.9 mph94%29.86 "Hg4 mi
10:00 pm48 °FFog.10 mph100%29.86 "Hg3 mi
9:00 pm48 °FFog.10 mph100%29.87 "Hg1 mi
8:53 pm48 °FFog.9 mph100%29.87 "Hg1 mi
8:00 pm48 °FFog.13 mph94%29.87 "Hg1 mi
7:31 pm48 °FFog.12 mph94%29.88 "Hg2 mi
7:00 pm48 °FFog.12 mph94%29.88 "Hg4 mi
Weather by CustomWeather, © 2017

See weather overviewHow to use our weather pages